Time,TemperatureF,DewpointF,PressureIn,WindDirection,WindDirectionDegrees,WindSpeedMPH,WindSpeedGustMPH,Humidity,HourlyPrecipIn,Conditions,Clouds,dailyrainin,SoftwareType,DateUTC
2013-09-14 00:00:00,53.0,53.0,30.03,SE,135,0.0,5.0,100,0.00,,,-99.99,Weather View 32 v60,2013-09-14 04:00:00,
2013-09-14 00:05:00,52.0,52.0,30.03,SE,135,0.0,5.0,100,0.00,,,-99.99,Weather View 32 v60,2013-09-14 04:05:00,
2013-09-14 00:06:00,52.0,52.0,30.03,SE,135,0.0,5.0,100,0.00,,,-99.99,Weather View 32 v60,2013-09-14 04:06:00,
2013-09-14 00:20:00,52.0,52.0,30.03,SE,135,0.0,5.0,100,0.00,,,-99.99,Weather View 32 v60,2013-09-14 04:20:00,
2013-09-14 00:30:00,52.0,52.0,30.04,SE,135,0.0,5.0,100,0.00,,,-99.99,Weather View 32 v60,2013-09-14 04:30:00,
2013-09-14 00:45:00,52.0,52.0,30.04,SE,135,0.0,0.0,100,0.00,,,-99.99,Weather View 32 v60,2013-09-14 04:45:00,
2013-09-14 00:55:00,51.0,51.0,30.05,SE,135,0.0,4.0,100,0.00,,,-99.99,Weather View 32 v60,2013-09-14 04:55:00,
2013-09-14 01:00:00,51.0,51.0,30.05,SE,135,0.0,4.0,100,0.00,,,-99.99,Weather View 32 v60,2013-09-14 05:00:00,
2013-09-14 01:05:00,51.0,51.0,30.04,SE,135,0.0,4.0,100,0.00,,,-99.99,Weather View 32 v60,2013-09-14 05:05:00,
2013-09-14 01:15:00,51.0,51.0,30.05,SE,135,0.0,4.0,100,0.00,,,-99.99,Weather View 32 v60,2013-09-14 05:15:00,
2013-09-14 01:20:00,51.0,51.0,30.05,WNW,292,0.0,4.0,100,0.00,,,-99.99,Weather View 32 v60,2013-09-14 05:20:00,
2013-09-14 01:25:00,51.0,51.0,30.05,SE,135,0.0,4.0,100,0.00,,,-99.99,Weather View 32 v60,2013-09-14 05:25:00,
2013-09-14 01:30:00,51.0,51.0,30.05,SE,135,0.0,4.0,100,0.00,,,-99.99,Weather View 32 v60,2013-09-14 05:30:00,
2013-09-14 01:40:00,51.0,51.0,30.05,SE,135,0.0,4.0,100,0.00,,,-99.99,Weather View 32 v60,2013-09-14 05:40:00,
2013-09-14 01:45:00,51.0,51.0,30.05,SE,135,0.0,4.0,100,0.00,,,-99.99,Weather View 32 v60,2013-09-14 05:45:00,
2013-09-14 01:55:00,50.0,50.0,30.05,SE,135,0.0,4.0,100,0.00,,,-99.99,Weather View 32 v60,2013-09-14 05:55:00,
2013-09-14 02:00:00,50.0,50.0,30.05,SE,135,0.0,3.0,100,0.00,,,-99.99,Weather View 32 v60,2013-09-14 06:00:00,
2013-09-14 02:05:00,50.0,50.0,30.05,SE,135,0.0,3.0,100,0.00,,,-99.99,Weather View 32 v60,2013-09-14 06:05:00,
2013-09-14 02:15:00,51.0,51.0,30.06,SE,135,0.0,3.0,100,0.00,,,-99.99,Weather View 32 v60,2013-09-14 06:15:00,
2013-09-14 02:20:00,51.0,51.0,30.06,SE,135,3.0,3.0,100,0.00,,,-99.99,Weather View 32 v60,2013-09-14 06:20:00,
2013-09-14 02:25:00,51.0,51.0,30.06,WNW,292,0.0,3.0,100,0.00,,,-99.99,Weather View 32 v60,2013-09-14 06:25:00,
2013-09-14 02:35:00,51.0,51.0,30.06,SE,135,0.0,3.0,100,0.00,,,-99.99,Weather View 32 v60,2013-09-14 06:35:00,
2013-09-14 02:45:00,51.0,51.0,30.06,SE,135,0.0,3.0,100,0.00,,,-99.99,Weather View 32 v60,2013-09-14 06:45:00,
2013-09-14 02:55:00,50.0,50.0,30.06,SE,135,0.0,3.0,100,0.00,,,-99.99,Weather View 32 v60,2013-09-14 06:55:00,
2013-09-14 03:00:00,50.0,50.0,30.06,SE,135,0.0,3.0,100,0.00,,,-99.99,Weather View 32 v60,2013-09-14 07:00:00,
2013-09-14 03:05:00,50.0,50.0,30.06,SE,135,0.0,3.0,100,0.00,,,-99.99,Weather View 32 v60,2013-09-14 07:05:00,
2013-09-14 03:10:00,50.0,50.0,30.06,SE,135,0.0,3.0,100,0.00,,,-99.99,Weather View 32 v60,2013-09-14 07:10:00,
2013-09-14 03:20:00,50.0,50.0,30.05,SE,135,0.0,4.0,100,0.00,,,-99.99,Weather View 32 v60,2013-09-14 07:20:00,
2013-09-14 03:25:00,50.0,50.0,30.05,SE,135,0.0,4.0,100,0.00,,,-99.99,Weather View 32 v60,2013-09-14 07:25:00,
2013-09-14 03:30:00,50.0,50.0,30.05,SE,135,0.0,4.0,100,0.00,,,-99.99,Weather View 32 v60,2013-09-14 07:30:00,
2013-09-14 03:35:00,50.0,50.0,30.06,SE,135,0.0,4.0,100,0.00,,,-99.99,Weather View 32 v60,2013-09-14 07:35:00,
2013-09-14 03:45:00,50.0,50.0,30.06,SE,135,0.0,4.0,100,0.00,,,-99.99,Weather View 32 v60,2013-09-14 07:45:00,
2013-09-14 03:55:00,49.0,49.0,30.06,SE,135,0.0,4.0,100,0.00,,,-99.99,Weather View 32 v60,2013-09-14 07:55:00,
2013-09-14 04:05:00,49.0,49.0,30.06,SE,135,0.0,4.0,100,0.00,,,-99.99,Weather View 32 v60,2013-09-14 08:05:00,
2013-09-14 04:10:00,49.0,49.0,30.06,SE,135,0.0,4.0,100,0.00,,,-99.99,Weather View 32 v60,2013-09-14 08:10:00,
2013-09-14 04:20:00,49.0,49.0,30.06,SE,135,0.0,4.0,100,0.00,,,-99.99,Weather View 32 v60,2013-09-14 08:20:00,
2013-09-14 04:25:00,49.0,49.0,30.06,SE,135,0.0,4.0,100,0.00,,,-99.99,Weather View 32 v60,2013-09-14 08:25:00,
2013-09-14 04:30:00,49.0,49.0,30.06,SE,135,0.0,4.0,100,0.00,,,-99.99,Weather View 32 v60,2013-09-14 08:30:00,
2013-09-14 04:35:00,49.0,49.0,30.06,SE,135,0.0,4.0,100,0.00,,,-99.99,Weather View 32 v60,2013-09-14 08:35:00,
2013-09-14 04:40:00,49.0,49.0,30.06,SE,135,0.0,4.0,100,0.00,,,-99.99,Weather View 32 v60,2013-09-14 08:40:00,
2013-09-14 04:45:00,49.0,49.0,30.06,SE,135,0.0,4.0,100,0.00,,,-99.99,Weather View 32 v60,2013-09-14 08:45:00,
2013-09-14 04:55:00,49.0,49.0,30.07,ESE,112,0.0,4.0,100,0.00,,,-99.99,Weather View 32 v60,2013-09-14 08:55:00,
2013-09-14 05:00:00,49.0,49.0,30.07,SE,135,0.0,4.0,100,0.00,,,-99.99,Weather View 32 v60,2013-09-14 09:00:00,
2013-09-14 05:09:00,49.0,49.0,30.07,SE,135,0.0,3.0,100,0.00,,,-99.99,Weather View 32 v60,2013-09-14 09:09:00,
2013-09-14 05:15:00,49.0,49.0,30.08,SE,135,0.0,3.0,100,0.00,,,-99.99,Weather View 32 v60,2013-09-14 09:15:00,
2013-09-14 05:20:00,49.0,49.0,30.08,SE,135,0.0,1.0,100,0.00,,,-99.99,Weather View 32 v60,2013-09-14 09:20:00,
2013-09-14 05:25:00,49.0,49.0,30.08,SE,135,0.0,0.0,100,0.00,,,-99.99,Weather View 32 v60,2013-09-14 09:25:00,
2013-09-14 05:35:00,50.0,50.0,30.08,SE,135,0.0,0.0,100,0.00,,,-99.99,Weather View 32 v60,2013-09-14 09:35:00,
2013-09-14 05:45:00,49.0,49.0,30.08,SE,135,0.0,0.0,100,0.00,,,-99.99,Weather View 32 v60,2013-09-14 09:45:00,
2013-09-14 05:55:00,49.0,49.0,30.09,SE,135,0.0,1.0,100,0.00,,,-99.99,Weather View 32 v60,2013-09-14 09:55:00,
2013-09-14 06:00:00,49.0,49.0,30.09,SE,135,0.0,5.0,100,0.00,,,-99.99,Weather View 32 v60,2013-09-14 10:00:00,
2013-09-14 06:09:00,49.0,49.0,30.08,NW,315,2.0,5.0,100,0.00,,,-99.99,Weather View 32 v60,2013-09-14 10:09:00,
2013-09-14 06:15:00,49.0,49.0,30.09,SE,135,0.0,5.0,100,0.00,,,-99.99,Weather View 32 v60,2013-09-14 10:15:00,
2013-09-14 06:20:00,49.0,49.0,30.09,SE,135,0.0,5.0,100,0.00,,,-99.99,Weather View 32 v60,2013-09-14 10:20:00,
2013-09-14 06:25:00,49.0,49.0,30.09,ESE,112,0.0,5.0,100,0.00,,,-99.99,Weather View 32 v60,2013-09-14 10:25:00,
2013-09-14 06:30:00,49.0,49.0,30.09,West,270,0.0,5.0,100,0.00,,,-99.99,Weather View 32 v60,2013-09-14 10:30:00,
2013-09-14 06:35:00,49.0,49.0,30.09,SE,135,0.0,5.0,100,0.00,,,-99.99,Weather View 32 v60,2013-09-14 10:35:00,
2013-09-14 06:40:00,49.0,49.0,30.09,SE,135,0.0,5.0,100,0.00,,,-99.99,Weather View 32 v60,2013-09-14 10:40:00,
2013-09-14 06:45:00,49.0,49.0,30.10,SE,135,3.0,5.0,100,0.00,,,-99.99,Weather View 32 v60,2013-09-14 10:45:00,
2013-09-14 06:55:00,49.0,49.0,30.10,SE,135,0.0,5.0,100,0.00,,,-99.99,Weather View 32 v60,2013-09-14 10:55:00,
2013-09-14 07:05:00,49.0,49.0,30.11,SE,135,0.0,4.0,100,0.00,,,-99.99,Weather View 32 v60,2013-09-14 11:05:00,
2013-09-14 07:10:00,49.0,49.0,30.11,SE,135,0.0,4.0,100,0.00,,,-99.99,Weather View 32 v60,2013-09-14 11:10:00,
2013-09-14 07:19:00,49.0,49.0,30.12,West,270,0.0,4.0,100,0.00,,,-99.99,Weather View 32 v60,2013-09-14 11:19:00,
2013-09-14 07:25:00,49.0,49.0,30.12,SE,135,0.0,4.0,100,0.00,,,-99.99,Weather View 32 v60,2013-09-14 11:25:00,
2013-09-14 07:30:00,49.0,49.0,30.12,SE,135,0.0,4.0,100,0.00,,,-99.99,Weather View 32 v60,2013-09-14 11:30:00,
2013-09-14 07:35:00,49.0,49.0,30.12,SE,135,0.0,4.0,100,0.00,,,-99.99,Weather View 32 v60,2013-09-14 11:35:00,
2013-09-14 07:45:00,50.0,50.0,30.12,SE,135,0.0,5.0,100,0.00,,,-99.99,Weather View 32 v60,2013-09-14 11:45:00,
2013-09-14 07:55:00,51.0,51.0,30.12,SE,135,3.0,6.0,100,0.00,,,-99.99,Weather View 32 v60,2013-09-14 11:55:00,
2013-09-14 08:00:00,51.0,51.0,30.12,West,270,0.0,6.0,100,0.00,,,-99.99,Weather View 32 v60,2013-09-14 12:00:00,
2013-09-14 08:05:00,52.0,51.2,30.12,West,270,2.0,7.0,97,0.00,,,-99.99,Weather View 32 v60,2013-09-14 12:05:00,
2013-09-14 08:11:00,52.0,51.2,30.12,SE,135,0.0,7.0,97,0.00,,,-99.99,Weather View 32 v60,2013-09-14 12:11:00,
2013-09-14 08:20:00,53.0,51.6,30.12,WSW,247,0.0,7.0,95,0.00,,,-99.99,Weather View 32 v60,2013-09-14 12:20:00,
2013-09-14 08:25:00,53.0,49.8,30.12,WSW,247,4.0,7.0,89,0.00,,,-99.99,Weather View 32 v60,2013-09-14 12:25:00,
2013-09-14 08:30:00,54.0,51.1,30.12,SE,135,0.0,7.0,90,0.00,,,-99.99,Weather View 32 v60,2013-09-14 12:30:00,
2013-09-14 08:35:00,54.0,50.8,30.12,WSW,247,0.0,7.0,89,0.00,,,-99.99,Weather View 32 v60,2013-09-14 12:35:00,
2013-09-14 08:45:00,55.0,49.3,30.12,SW,225,0.0,7.0,81,0.00,,,-99.99,Weather View 32 v60,2013-09-14 12:45:00,
2013-09-14 08:50:00,55.0,49.3,30.12,ESE,112,0.0,7.0,81,0.00,,,-99.99,Weather View 32 v60,2013-09-14 12:50:00,
2013-09-14 08:55:00,54.0,48.6,30.12,SE,135,1.0,7.0,82,0.00,,,-99.99,Weather View 32 v60,2013-09-14 12:55:00,
2013-09-14 09:05:00,55.0,49.9,30.12,West,270,0.0,10.0,83,0.00,,,-99.99,Weather View 32 v60,2013-09-14 13:05:00,
2013-09-14 09:11:00,56.0,50.2,30.12,WNW,292,1.0,10.0,81,0.00,,,-99.99,Weather View 32 v60,2013-09-14 13:11:00,
2013-09-14 09:20:00,57.0,50.2,30.12,ESE,112,0.0,10.0,78,0.00,,,-99.99,Weather View 32 v60,2013-09-14 13:20:00,
2013-09-14 09:25:00,58.0,51.2,30.13,SE,135,2.0,10.0,78,0.00,,,-99.99,Weather View 32 v60,2013-09-14 13:25:00,
2013-09-14 09:30:00,59.0,48.8,30.13,NNW,337,1.0,10.0,69,0.00,,,-99.99,Weather View 32 v60,2013-09-14 13:30:00,
2013-09-14 09:35:00,60.0,50.2,30.12,North,360,0.0,10.0,70,0.00,,,-99.99,Weather View 32 v60,2013-09-14 13:35:00,
2013-09-14 09:45:00,61.0,50.7,30.12,SE,135,0.0,10.0,69,0.00,,,-99.99,Weather View 32 v60,2013-09-14 13:45:00,
2013-09-14 09:55:00,60.0,48.2,30.12,SE,135,3.0,10.0,65,0.00,,,-99.99,Weather View 32 v60,2013-09-14 13:55:00,
2013-09-14 10:00:00,61.0,49.9,30.12,West,270,3.0,9.0,67,0.00,,,-99.99,Weather View 32 v60,2013-09-14 14:00:00,
2013-09-14 10:05:00,62.0,50.5,30.11,SE,135,5.0,9.0,66,0.00,,,-99.99,Weather View 32 v60,2013-09-14 14:05:00,
2013-09-14 10:10:00,62.0,50.1,30.11,NW,315,1.0,9.0,65,0.00,,,-99.99,Weather View 32 v60,2013-09-14 14:10:00,
2013-09-14 10:20:00,62.0,47.9,30.11,WNW,292,0.0,9.0,60,0.00,,,-99.99,Weather View 32 v60,2013-09-14 14:20:00,
2013-09-14 10:25:00,61.0,47.9,30.11,WNW,292,3.0,9.0,62,0.00,,,-99.99,Weather View 32 v60,2013-09-14 14:25:00,
2013-09-14 10:35:00,62.0,48.4,30.12,NW,315,2.0,9.0,61,0.00,,,-99.99,Weather View 32 v60,2013-09-14 14:35:00,
2013-09-14 10:40:00,62.0,48.4,30.12,West,270,8.0,9.0,61,0.00,,,-99.99,Weather View 32 v60,2013-09-14 14:40:00,
2013-09-14 10:45:00,62.0,47.0,30.11,East,90,0.0,9.0,58,0.00,,,-99.99,Weather View 32 v60,2013-09-14 14:45:00,
2013-09-14 10:50:00,62.0,48.8,30.11,ENE,67,2.0,9.0,62,0.00,,,-99.99,Weather View 32 v60,2013-09-14 14:50:00,
2013-09-14 10:55:00,62.0,47.9,30.11,East,90,0.0,9.0,60,0.00,,,-99.99,Weather View 32 v60,2013-09-14 14:55:00,
2013-09-14 11:00:00,62.0,47.9,30.11,SE,135,3.0,9.0,60,0.00,,,-99.99,Weather View 32 v60,2013-09-14 15:00:00,
2013-09-14 11:05:00,62.0,48.8,30.12,North,360,0.0,9.0,62,0.00,,,-99.99,Weather View 32 v60,2013-09-14 15:05:00,
2013-09-14 11:10:00,63.0,50.6,30.12,WNW,292,3.0,9.0,64,0.00,,,-99.99,Weather View 32 v60,2013-09-14 15:10:00,
2013-09-14 11:19:00,62.0,47.5,30.11,North,360,0.0,9.0,59,0.00,,,-99.99,Weather View 32 v60,2013-09-14 15:19:00,
2013-09-14 11:25:00,63.0,48.0,30.12,WNW,292,3.0,9.0,58,0.00,,,-99.99,Weather View 32 v60,2013-09-14 15:25:00,
2013-09-14 11:35:00,63.0,49.3,30.12,SW,225,5.0,9.0,61,0.00,,,-99.99,Weather View 32 v60,2013-09-14 15:35:00,
2013-09-14 11:45:00,63.0,49.7,30.12,SW,225,3.0,13.0,62,0.00,,,-99.99,Weather View 32 v60,2013-09-14 15:45:00,
2013-09-14 11:50:00,64.0,49.8,30.12,West,270,0.0,13.0,60,0.00,,,-99.99,Weather View 32 v60,2013-09-14 15:50:00,
2013-09-14 11:55:00,65.0,49.8,30.11,West,270,3.0,13.0,58,0.00,,,-99.99,Weather View 32 v60,2013-09-14 15:55:00,
2013-09-14 12:00:00,64.0,47.5,30.11,East,90,5.0,13.0,55,0.00,,,-99.99,Weather View 32 v60,2013-09-14 16:00:00,
2013-09-14 12:05:00,63.0,48.9,30.12,West,270,2.0,13.0,60,0.00,,,-99.99,Weather View 32 v60,2013-09-14 16:05:00,
2013-09-14 12:15:00,64.0,48.4,30.12,East,90,0.0,13.0,57,0.00,,,-99.99,Weather View 32 v60,2013-09-14 16:15:00,
2013-09-14 12:25:00,63.0,47.5,30.12,NW,315,7.0,13.0,57,0.00,,,-99.99,Weather View 32 v60,2013-09-14 16:25:00,
2013-09-14 12:30:00,62.0,48.4,30.12,WSW,247,4.0,13.0,61,0.00,,,-99.99,Weather View 32 v60,2013-09-14 16:30:00,
2013-09-14 12:45:00,61.0,47.0,30.14,West,270,0.0,13.0,60,0.00,,,-99.99,Weather View 32 v60,2013-09-14 16:45:00,
2013-09-14 12:55:00,61.0,49.1,30.14,West,270,0.0,8.0,65,0.00,,,-99.99,Weather View 32 v60,2013-09-14 16:55:00,
2013-09-14 13:00:00,61.0,48.7,30.14,West,270,0.0,8.0,64,0.00,,,-99.99,Weather View 32 v60,2013-09-14 17:00:00,
2013-09-14 13:10:00,61.0,49.5,30.15,WNW,292,0.0,8.0,66,0.00,,,-99.99,Weather View 32 v60,2013-09-14 17:10:00,
2013-09-14 13:20:00,63.0,48.4,30.14,West,270,0.0,8.0,59,0.00,,,-99.99,Weather View 32 v60,2013-09-14 17:20:00,
2013-09-14 13:35:00,62.0,48.8,30.14,WSW,247,0.0,8.0,62,0.00,,,-99.99,Weather View 32 v60,2013-09-14 17:35:00,
2013-09-14 13:40:00,62.0,48.8,30.14,WNW,292,1.0,8.0,62,0.00,,,-99.99,Weather View 32 v60,2013-09-14 17:40:00,
2013-09-14 13:45:00,61.0,48.7,30.15,SW,225,4.0,8.0,64,0.00,,,-99.99,Weather View 32 v60,2013-09-14 17:45:00,
2013-09-14 13:55:00,61.0,48.7,30.14,West,270,0.0,8.0,64,0.00,,,-99.99,Weather View 32 v60,2013-09-14 17:55:00,
2013-09-14 14:00:00,61.0,48.3,30.14,NNW,337,0.0,8.0,63,0.00,,,-99.99,Weather View 32 v60,2013-09-14 18:00:00,
2013-09-14 14:05:00,61.0,49.1,30.14,WNW,292,3.0,7.0,65,0.00,,,-99.99,Weather View 32 v60,2013-09-14 18:05:00,
2013-09-14 14:10:00,61.0,48.7,30.14,West,270,4.0,7.0,64,0.00,,,-99.99,Weather View 32 v60,2013-09-14 18:10:00,
2013-09-14 14:35:00,63.0,48.9,30.14,WSW,247,0.0,7.0,60,0.00,,,-99.99,Weather View 32 v60,2013-09-14 18:35:00,
2013-09-14 14:40:00,62.0,49.7,30.14,West,270,0.0,7.0,64,0.00,,,-99.99,Weather View 32 v60,2013-09-14 18:40:00,
2013-09-14 14:45:00,62.0,48.8,30.14,WNW,292,0.0,7.0,62,0.00,,,-99.99,Weather View 32 v60,2013-09-14 18:45:00,
2013-09-14 14:55:00,62.0,48.8,30.14,West,270,3.0,7.0,62,0.00,,,-99.99,Weather View 32 v60,2013-09-14 18:55:00,
2013-09-14 15:15:00,62.0,50.1,30.15,West,270,0.0,5.0,65,0.00,,,-99.99,Weather View 32 v60,2013-09-14 19:15:00,
2013-09-14 15:30:00,62.0,48.8,30.15,WSW,247,1.0,7.0,62,0.00,,,-99.99,Weather View 32 v60,2013-09-14 19:30:00,
2013-09-14 15:35:00,62.0,49.7,30.15,NW,315,0.0,7.0,64,0.00,,,-99.99,Weather View 32 v60,2013-09-14 19:35:00,
2013-09-14 15:45:00,63.0,49.7,30.14,West,270,3.0,7.0,62,0.00,,,-99.99,Weather View 32 v60,2013-09-14 19:45:00,
2013-09-14 15:55:00,61.0,48.3,30.14,West,270,2.0,7.0,63,0.00,,,-99.99,Weather View 32 v60,2013-09-14 19:55:00,
2013-09-14 16:10:00,61.0,48.7,30.15,SW,225,1.0,7.0,64,0.00,,,-99.99,Weather View 32 v60,2013-09-14 20:10:00,
2013-09-14 16:15:00,61.0,48.7,30.15,ENE,67,0.0,7.0,64,0.00,,,-99.99,Weather View 32 v60,2013-09-14 20:15:00,
2013-09-14 16:25:00,60.0,48.2,30.16,ENE,67,4.0,6.0,65,0.00,,,-99.99,Weather View 32 v60,2013-09-14 20:25:00,
2013-09-14 16:40:00,59.0,48.0,30.16,WNW,292,0.0,6.0,67,0.00,,,-99.99,Weather View 32 v60,2013-09-14 20:40:00,
2013-09-14 16:50:00,59.0,48.8,30.17,WNW,292,2.0,6.0,69,0.00,,,-99.99,Weather View 32 v60,2013-09-14 20:50:00,
2013-09-14 17:00:00,60.0,50.2,30.17,West,270,0.0,6.0,70,0.00,,,-99.99,Weather View 32 v60,2013-09-14 21:00:00,
2013-09-14 17:05:00,60.0,49.0,30.18,SW,225,0.0,6.0,67,0.00,,,-99.99,Weather View 32 v60,2013-09-14 21:05:00,
2013-09-14 17:20:00,58.0,47.9,30.18,WNW,292,0.0,6.0,69,0.00,,,-99.99,Weather View 32 v60,2013-09-14 21:20:00,
2013-09-14 17:30:00,58.0,49.4,30.19,SW,225,2.0,5.0,73,0.00,,,-99.99,Weather View 32 v60,2013-09-14 21:30:00,
2013-09-14 17:35:00,58.0,48.6,30.19,NW,315,0.0,5.0,71,0.00,,,-99.99,Weather View 32 v60,2013-09-14 21:35:00,
2013-09-14 17:40:00,58.0,49.0,30.20,East,90,0.0,5.0,72,0.00,,,-99.99,Weather View 32 v60,2013-09-14 21:40:00,
2013-09-14 17:49:00,58.0,48.6,30.20,SW,225,0.0,5.0,71,0.00,,,-99.99,Weather View 32 v60,2013-09-14 21:49:00,
2013-09-14 17:55:00,57.0,48.0,30.20,WSW,247,0.0,5.0,72,0.00,,,-99.99,Weather View 32 v60,2013-09-14 21:55:00,
2013-09-14 18:05:00,57.0,48.8,30.21,WNW,292,0.0,5.0,74,0.00,,,-99.99,Weather View 32 v60,2013-09-14 22:05:00,
2013-09-14 18:15:00,57.0,48.8,30.21,SW,225,0.0,5.0,74,0.00,,,-99.99,Weather View 32 v60,2013-09-14 22:15:00,
2013-09-14 18:55:00,56.0,49.9,30.22,ENE,67,0.0,3.0,80,0.00,,,-99.99,Weather View 32 v60,2013-09-14 22:55:00,
2013-09-14 19:05:00,55.0,49.6,30.22,North,360,0.0,1.0,82,0.00,,,-99.99,Weather View 32 v60,2013-09-14 23:05:00,
2013-09-14 19:10:00,55.0,49.6,30.22,NNW,337,0.0,1.0,82,0.00,,,-99.99,Weather View 32 v60,2013-09-14 23:10:00,
2013-09-14 19:15:00,54.0,49.6,30.22,NE,45,0.0,1.0,85,0.00,,,-99.99,Weather View 32 v60,2013-09-14 23:15:00,
2013-09-14 19:25:00,53.0,49.2,30.23,SW,225,0.0,1.0,87,0.00,,,-99.99,Weather View 32 v60,2013-09-14 23:25:00,
2013-09-14 19:30:00,52.0,49.2,30.23,West,270,0.0,1.0,90,0.00,,,-99.99,Weather View 32 v60,2013-09-14 23:30:00,
2013-09-14 19:50:00,51.0,49.6,30.24,North,360,0.0,1.0,95,0.00,,,-99.99,Weather View 32 v60,2013-09-14 23:50:00,
2013-09-14 19:55:00,51.0,50.2,30.24,ESE,112,0.0,1.0,97,0.00,,,-99.99,Weather View 32 v60,2013-09-14 23:55:00,
2013-09-14 20:00:00,51.0,50.5,30.24,ESE,112,0.0,1.0,98,0.00,,,-99.99,Weather View 32 v60,2013-09-15 00:00:00,
2013-09-14 20:05:00,51.0,51.0,30.25,ESE,112,0.0,1.0,100,0.00,,,-99.99,Weather View 32 v60,2013-09-15 00:05:00,
2013-09-14 20:15:00,51.0,51.0,30.27,SE,135,0.0,0.0,100,0.00,,,-99.99,Weather View 32 v60,2013-09-15 00:15:00,
2013-09-14 20:25:00,50.0,50.0,30.27,SE,135,0.0,0.0,100,0.00,,,-99.99,Weather View 32 v60,2013-09-15 00:25:00,
2013-09-14 20:30:00,50.0,50.0,30.27,NNE,22,0.0,0.0,100,0.00,,,-99.99,Weather View 32 v60,2013-09-15 00:30:00,
2013-09-14 20:40:00,49.0,49.0,30.27,ESE,112,0.0,0.0,100,0.00,,,-99.99,Weather View 32 v60,2013-09-15 00:40:00,
2013-09-14 20:45:00,49.0,49.0,30.27,SE,135,0.0,0.0,100,0.00,,,-99.99,Weather View 32 v60,2013-09-15 00:45:00,
2013-09-14 20:55:00,49.0,49.0,30.27,ESE,112,0.0,0.0,100,0.00,,,-99.99,Weather View 32 v60,2013-09-15 00:55:00,
2013-09-14 21:05:00,48.0,48.0,30.28,SE,135,0.0,0.0,100,0.00,,,-99.99,Weather View 32 v60,2013-09-15 01:05:00,
2013-09-14 21:15:00,48.0,48.0,30.28,SE,135,0.0,0.0,100,0.00,,,-99.99,Weather View 32 v60,2013-09-15 01:15:00,
2013-09-14 21:20:00,48.0,48.0,30.28,SE,135,0.0,0.0,100,0.00,,,-99.99,Weather View 32 v60,2013-09-15 01:20:00,
2013-09-14 21:25:00,48.0,48.0,30.28,SE,135,0.0,0.0,100,0.00,,,-99.99,Weather View 32 v60,2013-09-15 01:25:00,
2013-09-14 21:35:00,47.0,47.0,30.28,SE,135,0.0,0.0,100,0.00,,,-99.99,Weather View 32 v60,2013-09-15 01:35:00,
2013-09-14 21:40:00,47.0,47.0,30.28,SE,135,0.0,0.0,100,0.00,,,-99.99,Weather View 32 v60,2013-09-15 01:40:00,
2013-09-14 21:45:00,47.0,47.0,30.28,SE,135,0.0,0.0,100,0.00,,,-99.99,Weather View 32 v60,2013-09-15 01:45:00,
2013-09-14 21:55:00,47.0,47.0,30.28,SE,135,0.0,0.0,100,0.00,,,-99.99,Weather View 32 v60,2013-09-15 01:55:00,
2013-09-14 22:05:00,46.0,46.0,30.29,SE,135,0.0,0.0,100,0.00,,,-99.99,Weather View 32 v60,2013-09-15 02:05:00,
2013-09-14 22:10:00,46.0,46.0,30.29,SE,135,0.0,0.0,100,0.00,,,-99.99,Weather View 32 v60,2013-09-15 02:10:00,
2013-09-14 22:19:00,46.0,46.0,30.29,SE,135,0.0,0.0,100,0.00,,,-99.99,Weather View 32 v60,2013-09-15 02:19:00,
2013-09-14 22:25:00,46.0,46.0,30.29,SE,135,0.0,0.0,100,0.00,,,-99.99,Weather View 32 v60,2013-09-15 02:25:00,
2013-09-14 22:35:00,46.0,46.0,30.29,SE,135,0.0,0.0,100,0.00,,,-99.99,Weather View 32 v60,2013-09-15 02:35:00,
2013-09-14 22:40:00,46.0,46.0,30.29,SE,135,0.0,0.0,100,0.00,,,-99.99,Weather View 32 v60,2013-09-15 02:40:00,
2013-09-14 22:45:00,45.0,45.0,30.29,SE,135,0.0,0.0,100,0.00,,,-99.99,Weather View 32 v60,2013-09-15 02:45:00,
2013-09-14 22:55:00,45.0,45.0,30.29,SE,135,0.0,0.0,100,0.00,,,-99.99,Weather View 32 v60,2013-09-15 02:55:00,
2013-09-14 23:00:00,45.0,45.0,30.29,SE,135,0.0,0.0,100,0.00,,,-99.99,Weather View 32 v60,2013-09-15 03:00:00,
2013-09-14 23:05:00,45.0,45.0,30.29,SE,135,0.0,0.0,100,0.00,,,-99.99,Weather View 32 v60,2013-09-15 03:05:00,
2013-09-14 23:10:00,45.0,45.0,30.29,SE,135,0.0,0.0,100,0.00,,,-99.99,Weather View 32 v60,2013-09-15 03:10:00,
2013-09-14 23:15:00,45.0,45.0,30.29,SE,135,0.0,0.0,100,0.00,,,-99.99,Weather View 32 v60,2013-09-15 03:15:00,
2013-09-14 23:25:00,45.0,45.0,30.29,SE,135,0.0,0.0,100,0.00,,,-99.99,Weather View 32 v60,2013-09-15 03:25:00,
2013-09-14 23:30:00,45.0,45.0,30.29,SE,135,0.0,0.0,100,0.00,,,-99.99,Weather View 32 v60,2013-09-15 03:30:00,
2013-09-14 23:40:00,45.0,45.0,30.30,SE,135,0.0,0.0,100,0.00,,,-99.99,Weather View 32 v60,2013-09-15 03:40:00,
2013-09-14 23:49:00,45.0,45.0,30.31,SE,135,0.0,0.0,100,0.00,,,-99.99,Weather View 32 v60,2013-09-15 03:49:00,
2013-09-14 23:55:00,45.0,45.0,30.30,SE,135,0.0,0.0,100,0.00,,,-99.99,Weather View 32 v60,2013-09-15 03:55:00,